Simultaneous Nadir Overpasses (SNOs) Predictions

Prediction of SNOs between METOP-C and LANDSAT-8 Satellite Orbit:

Table of predicted SNOs for the next 14.0 days since TLE Epoch: 11/6/2021
Index Date (METOP-C) Time (METOP-C) Lat,Lon (METOP-C) SZA (METOP-C ) Date (LANDSAT-8) Time (LANDSAT-8) Lat,Lon (LANDSAT-8) SZA (LANDSAT-8 ) Distance(km) Time Diff (sec)
1 11/06/2021 15:27:37 -81.10, 167.79 80.38 11/06/2021 15:27:43 -81.10, 167.64 80.39 2.75 6
2 11/06/2021 16:18:16 81.11, -24.57 99.68 11/06/2021 16:17:09 81.10, -24.61 99.64 0.97 67
3 11/09/2021 10:11:21 81.07, 66.01 100.31 11/09/2021 10:12:32 81.06, 65.91 100.33 1.80 71
4 11/09/2021 11:02:00 -81.11,-125.63 79.55 11/09/2021 11:01:57 -81.11,-125.79 79.57 2.67 3
5 11/12/2021 05:45:44 81.07, 132.56 101.10 11/12/2021 05:46:46 81.06, 132.38 101.10 3.31 62
6 11/12/2021 06:36:23 -81.11, -59.10 78.76 11/12/2021 06:36:11 -81.11, -59.29 78.79 3.21 12
7 11/15/2021 01:20:06 81.08,-160.91 101.84 11/15/2021 01:20:58 81.09,-160.86 101.87 1.24 52
8 11/15/2021 02:10:46 -81.10, 7.02 78.08 11/15/2021 02:10:24 -81.11, 7.14 78.07 2.29 22
9 11/17/2021 20:54:29 81.08, -94.42 102.53 11/17/2021 20:55:12 81.08, -94.53 102.53 1.90 43



Historial Predications of SNOs between METOP-C and LANDSAT-8
